Home   Weather   Stendal   Past weeks

Flag for Germany Past Weather in Stendal, Saxony-Anhalt, Germany — Yesterday and Last 2 Weeks

Now
63 °F

Clear.


Feels Like: 63 °F
Forecast: 51 / 71 °F
Wind: 12 mph from Southeast

Location: Berlin-Tegel

Current Time: Sep 25, 2016 at 11:00:39 PM

Latest Report: Sep 25, 2016 at 10:20 PM


Visibility: 10 mi

Pressure: 30.12 "Hg

Humidity: 56%

Dew Point: 46 °F

Location of StendalLocation

Past Weather in Stendal — Graph

°F

Stendal Temperature Yesterday

Maximum temperature yesterday: 68 °F (at 3:20 PM)
Minimum temperature yesterday: 50 °F (at 5:50 AM)
Average temperature yesterday: 59 °F

High & Low Weather Summary for the Past Weeks

 TemperatureHumidityPressure
High90 °F (Sep 12, 4:20 PM)94% (Sep 24, 3:20 AM)30.30 "Hg (Sep 24, 3:20 AM)
Low45 °F (Sep 20, 6:50 AM)24% (Sep 13, 3:20 PM)29.83 "Hg (Sep 16, 5:50 PM)
Average65 °F60%30.07 "Hg
* Reported Sep 10 9:20 PM — Sep 25 9:50 PM, Stendal, Weather by CustomWeather, © 2016

Note: Actual official high and low records may vary slightly from our data, if they occured in-between our weather recording intervals... More about our weather records

Advertising

Stendal Weather History for the Previous 24 Hours

Scroll right to see more
 ConditionsComfort  
Time TempWeatherWind HumidityBarometerVisibility
9:50 PM
Sun, Sep 25
63 °FClear.9 mph56%30.12 "Hg10 mi
9:20 PM63 °FPassing clouds.6 mph59%30.12 "HgN/A
8:50 PM63 °FPassing clouds.3 mph59%30.12 "HgN/A
8:20 PM64 °FClear.6 mph52%30.12 "Hg10 mi
7:50 PM64 °FClear.5 mph56%30.12 "Hg10 mi
7:20 PM64 °FClear.6 mph52%30.12 "Hg10 mi
6:50 PM66 °FSunny.7 mph49%30.12 "Hg10 mi
6:20 PM68 °FSunny.8 mph46%30.12 "Hg10 mi
5:50 PM70 °FSunny.7 mph43%30.09 "Hg10 mi
5:20 PM72 °FSunny.8 mph41%30.12 "Hg10 mi
4:50 PM72 °FPassing clouds.12 mph41%30.12 "HgN/A
4:20 PM72 °FPassing clouds.8 mph38%30.12 "HgN/A
3:50 PM72 °FPassing clouds.7 mph38%30.12 "HgN/A
3:20 PM72 °FPassing clouds.9 mph41%30.12 "HgN/A
2:50 PM72 °FPassing clouds.8 mph41%30.12 "HgN/A
2:20 PM73 °FPassing clouds.10 mph38%30.15 "HgN/A
1:50 PM72 °FPassing clouds.9 mph41%30.15 "HgN/A
1:20 PM70 °FPassing clouds.8 mph46%30.15 "HgN/A
12:50 PM68 °FPassing clouds.8 mph49%30.18 "HgN/A
12:20 PM68 °FPassing clouds.9 mph49%30.18 "HgN/A
11:50 AM64 °FSunny.9 mph56%30.18 "Hg10 mi
11:20 AM64 °FPassing clouds.7 mph56%30.18 "HgN/A
10:50 AM63 °FPassing clouds.6 mph59%30.18 "HgN/A
10:20 AM61 °FSunny.8 mph63%30.21 "Hg10 mi
9:50 AM59 °FSunny.7 mph68%30.21 "Hg10 mi
9:20 AM59 °FPassing clouds.7 mph63%30.21 "HgN/A
8:50 AM55 °FSunny.7 mph72%30.21 "Hg10 mi
8:20 AM54 °FPassing clouds.3 mph77%30.21 "HgN/A
7:50 AM52 °FPassing clouds.3 mph82%30.21 "HgN/A
7:20 AM50 °FSunny.3 mph88%30.21 "Hg10 mi
6:50 AM50 °FClear.3 mph88%30.21 "Hg10 mi
6:20 AM50 °FPassing clouds.3 mph88%30.21 "HgN/A
5:50 AM52 °FClear.2 mph82%30.21 "Hg10 mi
5:20 AM52 °FClear.2 mph82%30.21 "Hg10 mi
4:50 AM52 °FClear.2 mph82%30.21 "Hg10 mi
4:20 AM52 °FClear.2 mph82%30.21 "Hg10 mi
3:50 AM52 °FClear.2 mph82%30.21 "Hg10 mi
3:20 AM50 °FClear.2 mph88%30.21 "Hg10 mi
2:50 AM52 °FClear.2 mph82%30.24 "Hg10 mi
2:20 AM54 °FClear.2 mph77%30.24 "Hg10 mi
1:50 AM54 °FClear.2 mph77%30.24 "Hg10 mi
1:20 AM54 °FPassing clouds.3 mph77%30.24 "HgN/A
12:50 AM54 °FClear.2 mph77%30.24 "Hg10 mi
12:20 AM54 °FClear.2 mph82%30.24 "Hg10 mi
11:50 PM
Sat, Sep 24
54 °FClear.1 mph82%30.24 "Hg10 mi
11:20 PM54 °FClear.2 mph82%30.24 "Hg10 mi
Weather by CustomWeather, © 2016

See weather overviewHow to use our weather pages